This is the latest recevied weather packets stored in our database for station/object DO9LL-1. If no packets are shown the sender has not sent any weather packets the latest 10 day(s).
| Time | Temp. | Humidity | Pressure | Rain* | Wind** | Luminosity | Snow |
|---|---|---|---|---|---|---|---|
| 1777726047 | 24.44° C | 49% | 1016.3 hPa | 0 mm | - | - | - |
| 1777725444 | 25° C | 48% | 1016.4 hPa | 0 mm | - | - | - |
| 1777724841 | 23.89° C | 50% | 1016.5 hPa | 0 mm | - | - | - |
| 1777724238 | 24.44° C | 49% | 1016.6 hPa | 0 mm | - | - | - |
| 1777723654 | 23.89° C | 48% | 1016.8 hPa | 0 mm | - | - | - |
| 1777723051 | 23.33° C | 50% | 1016.8 hPa | 0 mm | - | - | - |
| 1777722448 | 23.33° C | 51% | 1016.9 hPa | 0 mm | - | - | - |
| 1777721843 | 22.78° C | 52% | 1016.9 hPa | 0 mm | - | - | - |
| 1777721240 | 22.78° C | 52% | 1017.1 hPa | 0 mm | - | - | - |
| 1777720636 | 23.33° C | 49% | 1017.2 hPa | 0 mm | - | - | - |
| 1777720054 | 22.78° C | 49% | 1017.1 hPa | 0 mm | - | - | - |
| 1777719450 | 22.78° C | 48% | 1017.3 hPa | 0 mm | - | - | - |
| 1777718848 | 23.33° C | 47% | 1017.4 hPa | 0 mm | - | - | - |
| 1777718244 | 22.22° C | 47% | 1017.4 hPa | 0 mm | - | - | - |
| 1777717640 | 22.78° C | 47% | 1017.5 hPa | 0 mm | - | - | - |
| 1777717036 | 23.33° C | 47% | 1017.6 hPa | 0 mm | - | - | - |
| 1777716458 | 23.33° C | 46% | 1017.6 hPa | 0 mm | - | - | - |
| 1777715850 | 22.78° C | 45% | 1017.6 hPa | 0 mm | - | - | - |
| 1777715247 | 22.22° C | 47% | 1017.7 hPa | 0 mm | - | - | - |
| 1777714643 | 22.78° C | 46% | 1017.7 hPa | 0 mm | - | - | - |
| 1777714039 | 22.22° C | 44% | 1017.8 hPa | 0 mm | - | - | - |
| 1777713436 | 21.11° C | 45% | 1018 hPa | 0 mm | - | - | - |
| 1777712852 | 21.11° C | 46% | 1018 hPa | 0 mm | - | - | - |
| 1777712248 | 21.11° C | 45% | 1018.1 hPa | 0 mm | - | - | - |
| 1777711645 | 21.11° C | 44% | 1017.9 hPa | 0 mm | - | - | - |
* Rain latest hour (hover to see other rain measurements)
** Current wind speed in m/s (hover to see current wind gust speed)